Location: Veytaux
(46.4185°N, 6.9320°E)
Time: 08:06:19
(UTC+00:00)

Cosmos 1271 Rocket - Pass Details

Date: 27 May 2022
Orbit: 495 x 539 km, 81.2° (Epoch: 01 July)

Event Time Altitude Azimuth Distance (km) Brightness Sun altitude
Rises 02:10:51 0° 343° (NNW) 2,628 6.8 -13.1°
Reaches altitude 10° 02:13:01 10° 337° (NNW) 1,744 5.8 -12.9°
Maximum altitude 02:16:41 45° 264° (W) 719 3.1 -12.5°
Enters shadow 02:19:21 17° 198° (SSW) 1,367 4.3 -12.2°
